NIMBUS 2 DEB, 47186

Orbit data source: Space-Track

NIMBUS 2 DEB, 47186 is space debris in SSO originally from a launch on Sun, 15 May 1966 UTC launched from the Air Force Western Test Range (AFWTR). Debris objects in space refer to the collection of defunct objects orbiting the Earth. Examples of debris include non-operational satellites, rocket bodies, and fragments generated from explosions, collisions, or faulty payload assembly.

Loading next visibility...
Identifier
47186, 1966-040BW
Orbit
SSO
Country
Flag of USUS
Related business
Manufacturer
Unknown
Mission
Spacecraft
Bus & Motor
Unknown
Mass
Unknown
Launch date (UTC)
1966-05-15 (59 years ago)
Launch vehicle
Unknown
Launch site
Air Force Western Test Range (AFWTR)
Object type
Payload
Rocket body
Debris
Shape & HBR
Unknown shape, 0.1 m
Radar Cross Section
Small (<0.1 m²)

Expand to show TLE details & history
Last TLE update: 8 hours ago

TLE from 8 hours ago
0 NIMBUS 2 DEB
1 47186U 66040BW  25291.07430825  .00002290  00000-0  42823-2 0  9994
2 47186 100.4262 120.8552 0053751 114.3166 246.3586 13.39602962244611
Epoch: 2025-10-18T01:47Z
TLE epoch observation values (Epoch: 2025-10-18T01:47:00.232Z)
Latitude
-0.00001°
Longitude
67.29369°
Altitude
1,129.83 km
Speed
7.28 km/s
True Right ascension
08h 03m 25s
True Declination
0° 00' 00"
Sunlit
Object was in daylight at epoch
Visualization orbit readout
Latitude
Unknown
Longitude
Unknown
Altitude
Unknown
Speed
Unknown
Apparent Right ascension
Unknown
Apparent Declination
Unknown
Sunlit
N/A
Visualization observer readout
Local Sidereal Time
04:54:27
Azimuth
Unknown
Elevation
Unknown
Doppler factor
Unknown
Orbital elements
Apogee altitude
1,148.352 km
Perigee altitude
1,067.873 km
Semi-major axis
7,486.249 km
Eccentricity
0.00538
Inclination
100.4262°
RAAN
120.8552°
Arg. of periapsis
114.3166°
True anomaly
245.79588°
Mean anomaly
246.3586°
Eccentric anomaly
246.07709°
Mean motion
3.35079 °/min
Orbital period
107.44 mins
BSTAR
0.0042823
Loading maneuver chart data...
Computing Atmospheric mass density...
Loading historical data...
Loading historical data...
Loading historical data...
Loading historical data...
Loading historical data...
Loading historical data...
Loading historical data...

Documentation

Showing up to 5 results
|